DW0332 Weather Reports


time (UTC)temp
C
wind
direction
speed
KPH
gust
KPH
rain 1hr
cm
rain 24hr
cm
rain mn
cm
humidity
%
barometer
mb
20260507134600 12 232 8.0 14.5 0.00 0.56 0.08 80 1008.6
20260507133106 12 219 6.4 16.1 0.00 0.56 0.08 79 1008.7
20260507131612 12 184 4.8 14.5 0.00 0.56 0.08 75 1008.8
20260507130054 13 304 4.8 9.7 0.00 0.56 0.08 74 1008.8
20260507124549 12 289 6.4 14.5 0.00 0.56 0.08 80 1008.9
20260507123046 11 265 4.8 11.3 0.00 0.56 0.08 81 1009.0
20260507121543 10 280 0.0 8.0 0.00 0.56 0.08 86 1008.9
20260507120042 8 311 1.6 8.0 0.00 0.56 0.08 88 1009.0
20260507114541 8 331 0.0 6.4 0.00 0.56 0.08 89 1009.1
20260507113039 8 297 0.0 4.8 0.03 0.56 0.08 91 1009.0
20260507111537 8 323 0.0 8.0 0.03 0.56 0.08 91 1009.0
20260507110037 7 327 0.0 4.8 0.03 0.56 0.08 91 1009.1
20260507104538 7 323 1.6 4.8 0.03 0.56 0.08 91 1008.9
20260507103036 7 319 0.0 3.2 0.00 0.53 0.05 91 1009.7
20260507101533 7 332 1.6 4.8 0.00 0.53 0.05 91 1009.2
20260507100035 7 273 1.6 4.8 0.00 0.53 0.05 91 1009.1
20260507094531 7 323 1.6 8.0 0.00 0.53 0.05 91 1009.1
20260507093029 8 306 3.2 8.0 0.00 0.53 0.05 91 1008.7
20260507091528 8 339 1.6 12.9 0.00 0.53 0.05 91 1008.3
20260507090026 8 345 4.8 9.7 0.00 0.53 0.05 92 1008.4
20260507084523 8 15 1.6 12.9 0.00 0.53 0.05 92 1008.4
20260507083022 8 317 3.2 9.7 0.00 0.53 0.05 93 1008.8
20260507081520 8 349 1.6 8.0 0.00 0.53 0.05 93 1008.3
20260507080017 9 342 3.2 8.0 0.00 0.53 0.05 93 1007.9
20260507074515 9 327 1.6 4.8 0.00 0.53 0.05 93 1008.2
20260507073014 9 327 1.6 4.8 0.00 0.53 0.05 93 1008.2
20260507071531 9 344 3.2 8.0 0.00 0.53 0.05 93 1007.7
20260507070012 10 311 1.6 8.0 0.00 0.53 0.05 93 1007.6
20260507064507 10 308 1.6 4.8 0.00 0.53 0.05 93 1007.7
20260507063008 10 308 0.0 3.2 0.00 0.53 0.05 93 1007.6
20260507061506 10 308 0.0 3.2 0.03 0.53 0.05 93 1007.3
20260507060004 10 328 1.6 9.7 0.03 0.53 0.05 93 1007.6
20260507054503 10 36 4.8 12.9 0.03 0.53 0.05 93 1007.1
20260507053129 11 30 1.6 12.9 0.03 0.53 0.05 94 1007.0
20260507051605 11 34 9.7 16.1 0.03 0.51 0.03 95 1007.2
20260507050056 10 251 1.6 8.0 0.03 0.51 0.03 93 1007.0
20260507044557 10 240 3.2 4.8 0.03 0.51 0.03 93 1006.7
20260507043053 11 257 1.6 4.8 0.03 0.51 0.03 94 1006.4
20260507041552 11 246 1.6 6.4 0.03 0.48 0.00 94 1006.3
20260507040047 10 221 4.8 12.9 0.03 0.48 0.00 94 1006.7
20260507034547 9 296 9.7 19.3 0.03 0.48 0.48 94 1006.6
20260507033050 8 304 6.4 22.5 0.03 0.48 0.48 93 1006.6
20260507031544 8 207 8.0 16.1 0.00 0.46 0.46 93 1006.2
20260507030042 8 222 11.3 20.9 0.00 0.46 0.46 93 1006.3
20260507024542 8 233 8.0 17.7 0.00 0.46 0.46 93 1006.5
20260507023039 9 244 9.7 19.3 0.00 0.46 0.46 93 1006.7
20260507021537 9 236 14.5 22.5 0.00 0.46 0.46 93 1006.8
20260507020040 8 234 9.7 19.3 0.00 0.46 0.46 93 1006.9
20260507014540 8 230 8.0 22.5 0.00 0.46 0.46 93 1007.1
20260507013032 9 240 11.3 24.1 0.00 0.46 0.46 93 1007.2
20260507011538 9 250 12.9 22.5 0.03 0.46 0.46 93 1007.3
20260507010030 9 251 11.3 25.7 0.03 0.46 0.46 93 1007.3
20260507004536 8 224 12.9 25.7 0.03 0.46 0.46 92 1007.3
20260507003026 9 195 9.7 25.7 0.03 0.46 0.46 93 1007.2
20260507001524 9 182 11.3 27.4 0.00 0.43 0.43 92 1007.3
20260507000020 9 214 9.7 19.3 0.00 0.43 0.43 92 1007.3
20260506234519 9 220 9.7 27.4 0.00 0.43 0.43 92 1007.3
20260506233018 9 180 8.0 20.9 0.00 0.43 0.43 92 1007.3
20260506231514 9 221 12.9 32.2 0.03 0.43 0.43 92 1007.5
20260506230011 9 205 12.9 27.4 0.03 0.43 0.43 92 1007.6
20260506224510 9 230 11.3 32.2 0.08 0.43 0.43 92 1007.7
20260506223007 10 246 9.7 22.5 0.13 0.43 0.43 92 1007.8
20260506221509 10 192 6.4 30.6 0.15 0.41 0.41 92 1007.8
20260506220003 10 164 9.7 29.0 0.20 0.41 0.41 92 1007.9
20260506214501 10 190 12.9 27.4 0.20 0.36 0.36 91 1008.2
20260506213059 10 227 11.3 24.1 0.20 0.30 0.30 91 1008.3
20260506211604 10 211 12.9 22.5 0.15 0.25 0.25 91 1008.4
20260506210056 10 213 9.7 29.0 0.13 0.20 0.20 90 1008.6
20260506204652 10 221 11.3 22.5 0.08 0.15 0.15 89 1008.7
20260506203052 10 184 8.0 16.1 0.08 0.10 0.10 89 1008.6
20260506201551 10 218 11.3 22.5 0.08 0.10 0.10 89 1008.6
20260506200057 10 217 9.7 20.9 0.08 0.08 0.08 90 1009.0
20260506194551 10 232 9.7 20.9 0.05 0.05 0.05 89 1009.3
20260506193053 10 242 11.3 20.9 0.03 0.03 0.03 89 1009.5
20260506191552 10 262 11.3 24.1 0.03 0.03 0.03 88 1009.2
20260506190046 11 292 8.0 27.4 0.00 0.00 0.00 86 1009.1
20260506184550 11 225 16.1 32.2 0.00 0.00 0.00 86 1008.6
20260506183050 11 213 9.7 25.7 0.00 0.00 0.00 86 1008.8
20260506181554 11 232 11.3 24.1 0.00 0.00 0.00 85 1009.1
20260506180100 11 230 12.9 22.5 0.00 0.00 0.00 85 1009.1
20260506174540 11 192 11.3 29.0 0.00 0.00 0.00 85 1009.2
20260506173041 10 222 11.3 25.7 0.00 0.00 0.00 86 1009.4
20260506171535 10 213 12.9 19.3 0.00 0.00 0.00 85 1009.6
20260506170034 10 218 6.4 16.1 0.00 0.00 0.00 85 1009.9
20260506164532 10 212 6.4 16.1 0.00 0.00 0.00 85 1010.2
20260506163032 10 213 8.0 17.7 0.00 0.00 0.00 85 1010.5
20260506161533 11 173 11.3 27.4 0.00 0.00 0.00 85 1010.8
20260506160029 11 205 14.5 24.1 0.00 0.00 0.00 85 1011.1
20260506154528 10 221 9.7 19.3 0.00 0.00 0.00 85 1011.2
20260506153027 11 232 11.3 25.7 0.00 0.00 0.00 85 1011.3
20260506151528 11 209 11.3 19.3 0.00 0.00 0.00 84 1011.2
20260506150027 11 231 16.1 27.4 0.00 0.00 0.00 83 1011.2
20260506144523 11 221 11.3 22.5 0.00 0.00 0.00 84 1010.9
20260506143026 11 224 8.0 22.5 0.00 0.00 0.00 85 1010.9
20260506141517 11 232 11.3 19.3 0.00 0.00 0.00 86 1011.2
20260506140017 10 210 11.3 24.1 0.00 0.00 0.00 86 1011.4